Location: Prairie Dale
(45.6972°N, 104.5033°W)
Time: 13:16:06
(UTC+00:00)

DX 1 - Pass Details

Date: 11 July 2022
Orbit: 616 x 630 km, 98.4° (Epoch: 18 August)

Event Time Altitude Azimuth Distance (km) Brightness Sun altitude
Rises 04:37:05 0° 10° (N) 2,927 ? -14.5°
Reaches altitude 10° 04:39:19 10° 6° (N) 2,013 ? -14.7°
Maximum altitude 04:43:37 58° 288° (WNW) 734 ? -15.1°
Drops below altitude 10° 04:47:52 10° 210° (SSW) 1,989 ? -15.5°
Enters shadow 04:48:38 - 208° (SSW) 2,302 ? -15.6°
